WXM80 ListenWXM80 Stop

You find our weather info also at:

UK Metoffice

WeatherCloud

Weather Underground

Northeastern Weather Network

AWEKAS

Citizen Weather Observer Program (CWOP)

HAMweather, WeatherForYou, PWS Weather


Weather Underground History page Text

Daily Summary for January 28, 2017 Units:  Metric    English   Both
« Previous Day
Next Day »
Daily Weekly Monthly Yearly Custom
  High: Low: Average:
Temperature: 4.7 °C 1.4 °C 2.8 °C
Dew Point: -2.7 °C -4.6 °C -3.8 °C
Humidity: 67 % 51 % 62 %
Wind Speed: 19.3 km/h 0 km/h 9.3 km/h
Wind Gust: 33.3 km/h - -
Wind:- - WSW
Pressure: 1006 hPa 1001.2 hPa -
Precipitation: 0 mm    
Historical Graphs
 
 
Tabular Data for January 28, 2017
Time Temperature Dew Point Pressure Wind Wind Speed Wind Gust Humidity Rainfall Rate (Hourly)
00:03 3.4 °C -2.9 °C 1001.6 hPa SW 17.1 km/h 31.5 km/h 63 % 0 mm
00:08 3.4 °C -2.9 °C 1001.2 hPa SW 9.7 km/h 18.5 km/h 63 % 0 mm
00:13 3.4 °C -2.9 °C 1001.6 hPa WSW 10.9 km/h 32.2 km/h 63 % 0 mm
00:19 3.4 °C -3 °C 1001.6 hPa WSW 10.6 km/h 18.5 km/h 63 % 0 mm
00:24 3.4 °C -3 °C 1001.6 hPa WSW 9.7 km/h 19.3 km/h 63 % 0 mm
00:29 3.4 °C -3 °C 1001.2 hPa WSW 8 km/h 20.4 km/h 63 % 0 mm
00:34 3.3 °C -3.1 °C 1001.6 hPa WSW 11.3 km/h 25.7 km/h 63 % 0 mm
00:39 3.3 °C -3.1 °C 1001.6 hPa WSW 8 km/h 22.5 km/h 63 % 0 mm
00:44 3.3 °C -3.1 °C 1001.6 hPa WSW 11.3 km/h 22.5 km/h 63 % 0 mm
00:49 3.2 °C -2.9 °C 1001.6 hPa WSW 9.7 km/h 20.9 km/h 64 % 0 mm
00:54 3.2 °C -3 °C 1001.2 hPa SW 11.3 km/h 19.3 km/h 64 % 0 mm
00:59 3.1 °C -3.3 °C 1001.2 hPa SW 6.4 km/h 29.6 km/h 63 % 0 mm
01:04 3 °C -3.4 °C 1001.6 hPa SW 5.3 km/h 18.5 km/h 63 % 0 mm
01:09 2.9 °C -3.4 °C 1001.6 hPa SW 11.3 km/h 24.1 km/h 63 % 0 mm
01:14 2.9 °C -3.4 °C 1001.6 hPa WSW 14.2 km/h 18.5 km/h 63 % 0 mm
01:19 2.9 °C -3.2 °C 1001.6 hPa WSW 6.8 km/h 14.8 km/h 64 % 0 mm
01:24 2.9 °C -3.4 °C 1001.6 hPa WSW 10.1 km/h 18.5 km/h 63 % 0 mm
01:29 2.9 °C -3.4 °C 1001.6 hPa WSW 16.7 km/h 24.1 km/h 63 % 0 mm
01:34 2.8 °C -3.5 °C 1001.6 hPa WSW 8.7 km/h 13 km/h 63 % 0 mm
01:39 2.8 °C -3.5 °C 1001.6 hPa WSW 7.6 km/h 18.5 km/h 63 % 0 mm
01:44 2.8 °C -3.6 °C 1001.6 hPa WSW 12.1 km/h 18.5 km/h 63 % 0 mm
01:49 2.8 °C -3.6 °C 1001.6 hPa South 12.1 km/h 14.8 km/h 63 % 0 mm
01:54 2.8 °C -3.6 °C 1001.6 hPa SW 12.9 km/h 22.2 km/h 63 % 0 mm
01:59 2.7 °C -3.6 °C 1001.6 hPa SW 12.7 km/h 14.8 km/h 63 % 0 mm
02:04 2.7 °C -3.6 °C 1001.6 hPa WSW 8.7 km/h 18.5 km/h 63 % 0 mm
02:09 2.7 °C -3.7 °C 1001.6 hPa WSW 13.7 km/h 22.2 km/h 63 % 0 mm
02:15 2.7 °C -3.7 °C 1001.6 hPa WSW 17.1 km/h 25.9 km/h 63 % 0 mm
02:20 2.7 °C -3.7 °C 1001.6 hPa WNW 12.9 km/h 20.9 km/h 63 % 0 mm
02:25 2.6 °C -3.7 °C 1001.6 hPa SW 7.2 km/h 24.1 km/h 63 % 0 mm
02:30 2.5 °C -3.8 °C 1001.6 hPa WSW 8.9 km/h 16.7 km/h 63 % 0 mm
02:35 2.4 °C -3.9 °C 1001.6 hPa SW 14.3 km/h 20.4 km/h 63 % 0 mm
02:40 2.3 °C -3.8 °C 1001.6 hPa SW 11.4 km/h 18.5 km/h 64 % 0 mm
02:45 2.3 °C -3.8 °C 1001.6 hPa West 10.1 km/h 13 km/h 64 % 0 mm
02:50 2.2 °C -3.7 °C 1001.6 hPa SW 8 km/h 14.8 km/h 65 % 0 mm
02:55 2.2 °C -3.7 °C 1001.2 hPa West 12.9 km/h 18.5 km/h 65 % 0 mm
03:00 2.1 °C -3.8 °C 1001.6 hPa SW 13 km/h 22.2 km/h 65 % 0 mm
03:05 2.1 °C -3.8 °C 1001.6 hPa West 5.1 km/h 16.7 km/h 65 % 0 mm
03:10 2.1 °C -3.8 °C 1001.6 hPa West 12.6 km/h 22.2 km/h 65 % 0 mm
03:15 2.1 °C -3.8 °C 1001.6 hPa West 15.6 km/h 24.1 km/h 65 % 0 mm
03:20 2.1 °C -3.8 °C 1001.6 hPa WSW 9.3 km/h 16.7 km/h 65 % 0 mm
03:25 2.1 °C -3.8 °C 1001.6 hPa WSW 5.8 km/h 12.9 km/h 65 % 0 mm
03:30 2.1 °C -3.7 °C 1001.6 hPa WSW 8.2 km/h 19.3 km/h 66 % 0 mm
03:35 2 °C -3.7 °C 1001.6 hPa SSW 11.1 km/h 14.8 km/h 66 % 0 mm
03:40 1.9 °C -3.7 °C 1001.6 hPa SSW 6.1 km/h 13 km/h 66 % 0 mm
03:46 1.9 °C -3.7 °C 1001.6 hPa SW 7.4 km/h 18.5 km/h 66 % 0 mm
03:51 1.9 °C -3.8 °C 1001.6 hPa SSW 12.1 km/h 22.2 km/h 66 % 0 mm
03:56 1.8 °C -3.8 °C 1001.6 hPa SW 5 km/h 27.8 km/h 66 % 0 mm
04:01 1.8 °C -3.8 °C 1001.6 hPa WSW 8.7 km/h 18.5 km/h 66 % 0 mm
04:06 1.8 °C -4.1 °C 1001.6 hPa WSW 13.7 km/h 22.2 km/h 65 % 0 mm
04:11 1.9 °C -4 °C 1001.9 hPa SSE 8.4 km/h 16.7 km/h 65 % 0 mm
04:16 1.9 °C -4 °C 1001.9 hPa WSW 12.2 km/h 18.5 km/h 65 % 0 mm
04:26 1.9 °C -4.2 °C 1001.9 hPa WSW 12.2 km/h 25.9 km/h 64 % 0 mm
04:31 2 °C -4.1 °C 1001.9 hPa SW 12.1 km/h 20.4 km/h 64 % 0 mm
04:36 2.1 °C -4.1 °C 1001.6 hPa WSW 10.8 km/h 24.1 km/h 64 % 0 mm
04:41 2.1 °C -4.2 °C 1001.6 hPa WSW 16.7 km/h 25.9 km/h 63 % 0 mm
04:46 2.1 °C -4 °C 1001.9 hPa SSW 12.6 km/h 20.4 km/h 64 % 0 mm
04:51 2.1 °C -4.2 °C 1001.9 hPa SW 16.4 km/h 27.8 km/h 63 % 0 mm
04:56 2.1 °C -4.2 °C 1001.9 hPa WNW 11.6 km/h 24.1 km/h 63 % 0 mm
05:01 2.1 °C -4.2 °C 1001.9 hPa South 12.4 km/h 24.1 km/h 63 % 0 mm
05:06 2.2 °C -4.2 °C 1001.9 hPa SW 11.3 km/h 16.7 km/h 63 % 0 mm
05:12 2.1 °C -4.2 °C 1001.9 hPa WSW 8.4 km/h 17.7 km/h 63 % 0 mm
05:17 2.1 °C -4.2 °C 1001.9 hPa SW 8 km/h 16.1 km/h 63 % 0 mm
05:22 2.1 °C -4.2 °C 1001.9 hPa South 11.1 km/h 22.2 km/h 63 % 0 mm
05:27 2.1 °C -4.3 °C 1001.9 hPa WSW 8 km/h 14.5 km/h 63 % 0 mm
05:32 2.1 °C -4.3 °C 1001.9 hPa SW 10.6 km/h 18.5 km/h 63 % 0 mm
05:37 2 °C -4.3 °C 1001.9 hPa WSW 11.6 km/h 16.7 km/h 63 % 0 mm
05:42 1.9 °C -4.4 °C 1001.9 hPa WSW 12.1 km/h 20.4 km/h 63 % 0 mm
05:47 1.9 °C -4.4 °C 1002.3 hPa WSW 17.2 km/h 27.8 km/h 63 % 0 mm
05:52 1.9 °C -4.4 °C 1002.3 hPa SW 9.5 km/h 17.7 km/h 63 % 0 mm
05:57 1.9 °C -4.4 °C 1002.3 hPa WSW 9.2 km/h 16.7 km/h 63 % 0 mm
06:02 1.8 °C -4.3 °C 1002.3 hPa WSW 11.3 km/h 24.1 km/h 64 % 0 mm
06:07 1.8 °C -4.3 °C 1002.3 hPa South 6 km/h 11.1 km/h 64 % 0 mm
06:12 1.8 °C -4.3 °C 1002.3 hPa WSW 11.9 km/h 24.1 km/h 64 % 0 mm
06:13 1.8 °C -4.3 °C 1002.3 hPa SSW 10 km/h 24.1 km/h 64 % 0 mm
06:18 1.8 °C -4.3 °C 1002.6 hPa WSW 11.6 km/h 18.5 km/h 64 % 0 mm
06:23 1.8 °C -4.3 °C 1002.6 hPa WSW 9.7 km/h 29.6 km/h 64 % 0 mm
06:28 1.8 °C -4.3 °C 1002.6 hPa WSW 12.9 km/h 24.1 km/h 64 % 0 mm
06:33 1.9 °C -4.2 °C 1002.6 hPa WSW 6 km/h 14.8 km/h 64 % 0 mm
06:38 1.9 °C -4.2 °C 1002.6 hPa SSW 13.7 km/h 20.4 km/h 64 % 0 mm
06:43 1.9 °C -4.2 °C 1002.6 hPa WSW 7.7 km/h 14.5 km/h 64 % 0 mm
06:48 1.9 °C -4.2 °C 1002.6 hPa WSW 12.6 km/h 18.5 km/h 64 % 0 mm
06:53 1.9 °C -4.2 °C 1002.6 hPa WSW 8 km/h 18.5 km/h 64 % 0 mm
06:58 1.9 °C -4.2 °C 1002.9 hPa SW 12.7 km/h 25.7 km/h 64 % 0 mm
07:03 1.9 °C -4.2 °C 1002.9 hPa WSW 11.1 km/h 18.5 km/h 64 % 0 mm
07:08 1.8 °C -4.3 °C 1002.6 hPa SSW 8.2 km/h 20.4 km/h 64 % 0 mm
07:13 1.8 °C -4.3 °C 1002.9 hPa SW 9.7 km/h 16.1 km/h 64 % 0 mm
07:18 1.7 °C -4.2 °C 1002.6 hPa WSW 9.3 km/h 14.8 km/h 65 % 0 mm
07:23 1.7 °C -4.4 °C 1002.6 hPa WSW 9 km/h 22.2 km/h 64 % 0 mm
07:28 1.7 °C -4.4 °C 1002.9 hPa SSW 15.4 km/h 31.5 km/h 64 % 0 mm
07:34 1.8 °C -4.3 °C 1002.9 hPa SW 5.3 km/h 11.1 km/h 64 % 0 mm
07:39 1.7 °C -4.3 °C 1002.9 hPa WSW 14.5 km/h 22.5 km/h 64 % 0 mm
07:44 1.8 °C -4.3 °C 1002.9 hPa SW 9.7 km/h 19.3 km/h 64 % 0 mm
07:49 1.8 °C -4.3 °C 1002.9 hPa West 10.6 km/h 16.7 km/h 64 % 0 mm
07:54 1.8 °C -4.3 °C 1002.9 hPa WSW 9.7 km/h 19.3 km/h 64 % 0 mm
07:59 1.9 °C -4.2 °C 1002.9 hPa SW 7.4 km/h 11.1 km/h 64 % 0 mm
08:04 2 °C -4.1 °C 1002.9 hPa West 13.5 km/h 33.3 km/h 64 % 0 mm
08:09 2.2 °C -4.2 °C 1003.3 hPa West 5.3 km/h 11.1 km/h 63 % 0 mm
08:14 2.4 °C -3.9 °C 1003.3 hPa SW 10.3 km/h 19.3 km/h 63 % 0 mm
08:19 2.6 °C -4 °C 1003.3 hPa WSW 17.4 km/h 31.5 km/h 62 % 0 mm
08:24 2.7 °C -3.9 °C 1003.3 hPa SW 8 km/h 16.7 km/h 62 % 0 mm
08:29 2.7 °C -4.1 °C 1003.6 hPa West 12.2 km/h 20.4 km/h 61 % 0 mm
08:34 2.8 °C -4.2 °C 1003.6 hPa WSW 18 km/h 29.6 km/h 60 % 0 mm
08:39 2.7 °C -4.1 °C 1003.6 hPa WSW 7.9 km/h 16.7 km/h 61 % 0 mm
08:44 2.7 °C -4.1 °C 1003.6 hPa West 10.8 km/h 18.5 km/h 61 % 0 mm
08:49 2.7 °C -4.1 °C 1003.6 hPa WSW 12.9 km/h 25.9 km/h 61 % 0 mm
08:54 2.7 °C -4.1 °C 1003.6 hPa WSW 17.4 km/h 27.8 km/h 61 % 0 mm
08:59 2.7 °C -4.1 °C 1003.6 hPa WSW 12.6 km/h 31.5 km/h 61 % 0 mm
09:04 2.7 °C -4.1 °C 1003.6 hPa WNW 11.7 km/h 33.3 km/h 61 % 0 mm
09:09 2.6 °C -4.2 °C 1003.6 hPa WSW 15 km/h 29 km/h 61 % 0 mm
09:14 2.7 °C -3.9 °C 1003.6 hPa West 11.9 km/h 18.5 km/h 62 % 0 mm
09:19 2.7 °C -4.1 °C 1003.9 hPa WSW 5.6 km/h 18.5 km/h 61 % 0 mm
09:25 2.8 °C -4 °C 1003.9 hPa West 12.2 km/h 22.2 km/h 61 % 0 mm
09:30 2.9 °C -3.7 °C 1003.9 hPa WSW 15.9 km/h 20.9 km/h 62 % 0 mm
09:35 3 °C -4 °C 1003.9 hPa SW 8.7 km/h 27.8 km/h 60 % 0 mm
09:40 3.1 °C -3.9 °C 1003.9 hPa WSW 8.5 km/h 13 km/h 60 % 0 mm
09:45 3.2 °C -3.8 °C 1003.9 hPa WSW 13 km/h 22.2 km/h 60 % 0 mm
09:50 3.2 °C -3.8 °C 1003.9 hPa WSW 12.6 km/h 22.2 km/h 60 % 0 mm
09:55 3.3 °C -3.6 °C 1003.9 hPa WSW 11.4 km/h 22.5 km/h 61 % 0 mm
10:00 3.3 °C -3.6 °C 1004.3 hPa SW 15.3 km/h 25.9 km/h 61 % 0 mm
10:05 3.3 °C -3.6 °C 1004.3 hPa West 6.1 km/h 12.9 km/h 61 % 0 mm
10:10 3.3 °C -3.7 °C 1004.3 hPa SW 13.8 km/h 29.6 km/h 60 % 0 mm
10:15 3.3 °C -3.7 °C 1004.3 hPa West 11.3 km/h 16.7 km/h 60 % 0 mm
10:20 3.4 °C -3.2 °C 1004.3 hPa West 13.8 km/h 19.3 km/h 62 % 0 mm
10:25 3.4 °C -3.4 °C 1004.3 hPa SW 13.4 km/h 27.8 km/h 61 % 0 mm
10:30 3.4 °C -3.4 °C 1004.3 hPa West 10 km/h 25.9 km/h 61 % 0 mm
10:35 3.6 °C -3.3 °C 1004.3 hPa SW 9.5 km/h 19.3 km/h 61 % 0 mm
10:40 3.6 °C -3.3 °C 1004.3 hPa WSW 12.7 km/h 31.5 km/h 61 % 0 mm
10:45 3.6 °C -3.3 °C 1004.3 hPa WNW 14.6 km/h 25.9 km/h 61 % 0 mm
10:51 3.6 °C -3.3 °C 1004.3 hPa SW 17.4 km/h 19.3 km/h 61 % 0 mm
10:56 3.6 °C -3.2 °C 1003.9 hPa WSW 12.7 km/h 25.7 km/h 61 % 0 mm
11:01 3.7 °C -3.4 °C 1003.9 hPa West 16.6 km/h 22.2 km/h 60 % 0 mm
11:06 3.7 °C -3.4 °C 1003.9 hPa West 8 km/h 13 km/h 60 % 0 mm
11:11 3.8 °C -3.1 °C 1003.9 hPa WSW 16.7 km/h 24.1 km/h 61 % 0 mm
11:16 3.8 °C -3.3 °C 1003.9 hPa SW 15.4 km/h 22.2 km/h 60 % 0 mm
11:21 3.8 °C -3 °C 1003.9 hPa WNW 7.9 km/h 14.8 km/h 61 % 0 mm
11:26 3.9 °C -3.2 °C 1003.9 hPa WSW 10.6 km/h 22.5 km/h 60 % 0 mm
11:31 4.1 °C -3 °C 1003.6 hPa West 12.2 km/h 20.4 km/h 60 % 0 mm
11:36 4.2 °C -3.1 °C 1003.6 hPa West 12.2 km/h 18.5 km/h 59 % 0 mm
11:41 4.3 °C -2.8 °C 1003.6 hPa SW 5.1 km/h 13 km/h 60 % 0 mm
11:46 4.4 °C -2.9 °C 1003.3 hPa SW 14 km/h 18.5 km/h 59 % 0 mm
11:51 4.4 °C -2.9 °C 1003.3 hPa WSW 9.2 km/h 14.8 km/h 59 % 0 mm
11:56 4.4 °C -3.1 °C 1003.3 hPa SW 19.3 km/h 31.5 km/h 58 % 0 mm
12:01 4.4 °C -3.1 °C 1003.3 hPa WNW 7.4 km/h 16.7 km/h 58 % 0 mm
12:06 4.4 °C -3.3 °C 1003.3 hPa SW 12.2 km/h 18.5 km/h 57 % 0 mm
12:11 4.4 °C -3.6 °C 1003.3 hPa WSW 7.9 km/h 16.7 km/h 56 % 0 mm
12:17 4.4 °C -3.8 °C 1002.9 hPa WSW 4.7 km/h 9.3 km/h 55 % 0 mm
12:22 4.5 °C -3.8 °C 1002.9 hPa SW 12.4 km/h 25.9 km/h 55 % 0 mm
12:27 4.5 °C -3.8 °C 1002.9 hPa SSW 12.1 km/h 24.1 km/h 55 % 0 mm
12:32 4.6 °C -3.2 °C 1002.9 hPa WSW 16.9 km/h 27.8 km/h 57 % 0 mm
12:37 4.5 °C -3.8 °C 1002.9 hPa West 12.6 km/h 31.5 km/h 55 % 0 mm
12:42 4.4 °C -3.6 °C 1002.9 hPa West 15 km/h 24.1 km/h 56 % 0 mm
12:47 4.4 °C -3.4 °C 1002.6 hPa SW 15 km/h 25.9 km/h 57 % 0 mm
12:52 4.4 °C -4.1 °C 1002.6 hPa SW 8.4 km/h 13 km/h 54 % 0 mm
12:57 4.6 °C -3.9 °C 1002.6 hPa WNW 9.3 km/h 16.7 km/h 54 % 0 mm
13:02 4.7 °C -4.3 °C 1002.6 hPa WSW 13 km/h 18.5 km/h 52 % 0 mm
13:07 4.7 °C -4.3 °C 1002.6 hPa WNW 13.2 km/h 22.2 km/h 52 % 0 mm
13:12 4.7 °C -4.6 °C 1002.6 hPa WNW 8 km/h 18.5 km/h 51 % 0 mm
13:17 4.7 °C -4.4 °C 1002.9 hPa WNW 10.5 km/h 24.1 km/h 52 % 0 mm
13:22 4.5 °C -4.5 °C 1002.9 hPa WNW 8.9 km/h 27.8 km/h 52 % 0 mm
13:27 4.4 °C -4.6 °C 1002.9 hPa West 14.3 km/h 25.9 km/h 52 % 0 mm
13:32 4.3 °C -4.2 °C 1002.6 hPa NW 6.4 km/h 13 km/h 54 % 0 mm
13:37 4.2 °C -3.6 °C 1002.9 hPa NW 4.2 km/h 20.4 km/h 57 % 0 mm
13:42 4.1 °C -3.4 °C 1002.6 hPa NW 9.7 km/h 18.5 km/h 58 % 0 mm
13:47 4.1 °C -3.2 °C 1002.9 hPa NW 11.6 km/h 17.7 km/h 59 % 0 mm
13:53 3.9 °C -3.3 °C 1002.9 hPa NW 9.2 km/h 18.5 km/h 59 % 0 mm
13:58 3.9 °C -3.2 °C 1002.6 hPa NW 8 km/h 18.5 km/h 60 % 0 mm
14:03 3.8 °C -3.5 °C 1002.9 hPa NW 12.6 km/h 29.6 km/h 59 % 0 mm
14:08 3.7 °C -3.6 °C 1002.9 hPa WNW 10.5 km/h 18.5 km/h 59 % 0 mm
14:13 3.6 °C -3.2 °C 1002.9 hPa NW 8.2 km/h 14.8 km/h 61 % 0 mm
14:18 3.6 °C -3.4 °C 1002.9 hPa WNW 2.9 km/h 9.3 km/h 60 % 0 mm
14:23 3.7 °C -3.2 °C 1002.9 hPa West 4.5 km/h 16.7 km/h 61 % 0 mm
14:28 3.7 °C -3.2 °C 1002.9 hPa WNW 9.5 km/h 20.9 km/h 61 % 0 mm
14:33 3.7 °C -2.9 °C 1002.9 hPa NW 7.6 km/h 16.7 km/h 62 % 0 mm
14:38 3.7 °C -2.7 °C 1002.9 hPa WNW 8.2 km/h 13 km/h 63 % 0 mm
14:43 3.6 °C -2.8 °C 1003.3 hPa WNW 5.5 km/h 14.5 km/h 63 % 0 mm
14:48 3.6 °C -2.8 °C 1003.3 hPa WNW 5 km/h 13 km/h 63 % 0 mm
14:53 3.5 °C -2.9 °C 1003.3 hPa WNW 7.4 km/h 14.8 km/h 63 % 0 mm
14:58 3.4 °C -2.9 °C 1003.3 hPa NW 6.1 km/h 9.7 km/h 63 % 0 mm
15:03 3.4 °C -3 °C 1003.3 hPa NW 7.6 km/h 11.3 km/h 63 % 0 mm
15:08 3.4 °C -3.2 °C 1003.3 hPa WNW 4.8 km/h 14.8 km/h 62 % 0 mm
15:13 3.3 °C -3.3 °C 1003.3 hPa WNW 2.1 km/h 5.6 km/h 62 % 0 mm
15:19 3.3 °C -3.1 °C 1003.6 hPa West 6.3 km/h 9.7 km/h 63 % 0 mm
15:24 3.3 °C -3.1 °C 1003.6 hPa West 3.2 km/h 11.3 km/h 63 % 0 mm
15:29 3.3 °C -3.2 °C 1003.6 hPa West 9.7 km/h 24.1 km/h 62 % 0 mm
15:34 3.4 °C -3.4 °C 1003.6 hPa West 11.3 km/h 19.3 km/h 61 % 0 mm
15:39 3.4 °C -3.7 °C 1003.6 hPa West 4.8 km/h 20.9 km/h 60 % 0 mm
15:44 3.4 °C -3.6 °C 1003.6 hPa West 4.8 km/h 14.5 km/h 60 % 0 mm
15:49 3.4 °C -3.6 °C 1003.6 hPa West 4.8 km/h 16.1 km/h 60 % 0 mm
15:54 3.4 °C -3.6 °C 1003.6 hPa West 3.2 km/h 19.3 km/h 60 % 0 mm
15:59 3.4 °C -4.1 °C 1003.6 hPa WNW 9.2 km/h 20.4 km/h 58 % 0 mm
16:04 3.4 °C -4.3 °C 1003.6 hPa WNW 8.4 km/h 14.8 km/h 57 % 0 mm
16:09 3.4 °C -4.1 °C 1003.6 hPa WSW 6.9 km/h 20.4 km/h 58 % 0 mm
16:14 3.4 °C -4.3 °C 1003.6 hPa WSW 9.5 km/h 20.4 km/h 57 % 0 mm
16:19 3.4 °C -4.3 °C 1003.6 hPa WSW 8.7 km/h 14.8 km/h 57 % 0 mm
16:24 3.4 °C -4.1 °C 1003.6 hPa WNW 11.1 km/h 16.7 km/h 58 % 0 mm
16:29 3.3 °C -4.2 °C 1003.6 hPa West 6.9 km/h 12.9 km/h 58 % 0 mm
16:34 3.3 °C -3.9 °C 1003.6 hPa WNW 3.4 km/h 5.6 km/h 59 % 0 mm
16:39 3.3 °C -4.2 °C 1003.6 hPa West 7.1 km/h 13 km/h 58 % 0 mm
16:44 3.3 °C -4.2 °C 1003.6 hPa NW 12.6 km/h 18.5 km/h 58 % 0 mm
16:49 3.3 °C -4.2 °C 1003.6 hPa SW 4.5 km/h 18.5 km/h 58 % 0 mm
16:54 3.3 °C -4 °C 1003.9 hPa West 9.5 km/h 18.5 km/h 59 % 0 mm
16:59 3.2 °C -4.1 °C 1003.9 hPa West 10.1 km/h 14.8 km/h 59 % 0 mm
17:00 3.2 °C -4.1 °C 1003.9 hPa West 12.9 km/h 20.4 km/h 59 % 0 mm
17:05 3.2 °C -4.3 °C 1003.9 hPa West 16.7 km/h 22.5 km/h 58 % 0 mm
17:10 3.2 °C -4.1 °C 1003.9 hPa WSW 7.9 km/h 13 km/h 59 % 0 mm
17:15 3.2 °C -4.1 °C 1003.9 hPa SW 6.4 km/h 9.3 km/h 59 % 0 mm
17:20 3.1 °C -3.9 °C 1003.9 hPa WNW 10.9 km/h 20.4 km/h 60 % 0 mm
17:25 3.1 °C -3.9 °C 1003.9 hPa WSW 11.9 km/h 20.4 km/h 60 % 0 mm
17:30 3.1 °C -3.9 °C 1003.9 hPa WSW 6.9 km/h 16.7 km/h 60 % 0 mm
17:35 3.1 °C -3.9 °C 1004.3 hPa West 8.2 km/h 18.5 km/h 60 % 0 mm
17:40 3.1 °C -3.9 °C 1004.3 hPa WSW 13.4 km/h 20.9 km/h 60 % 0 mm
17:45 3.1 °C -3.9 °C 1004.3 hPa West 10.1 km/h 24.1 km/h 60 % 0 mm
17:50 3 °C -4 °C 1004.3 hPa West 7.4 km/h 16.7 km/h 60 % 0 mm
17:55 3 °C -4.2 °C 1004.3 hPa WNW 14.5 km/h 20.4 km/h 59 % 0 mm
18:00 3 °C -4.2 °C 1004.6 hPa West 10.1 km/h 13 km/h 59 % 0 mm
18:05 2.9 °C -4.1 °C 1004.6 hPa WNW 6.1 km/h 14.8 km/h 60 % 0 mm
18:10 2.9 °C -4.1 °C 1004.6 hPa WSW 9.5 km/h 16.7 km/h 60 % 0 mm
18:16 2.9 °C -4.3 °C 1004.6 hPa West 6.4 km/h 13 km/h 59 % 0 mm
18:20 2.9 °C -4.6 °C 1004.6 hPa WSW 9 km/h 16.7 km/h 58 % 0 mm
18:26 2.9 °C -4.3 °C 1004.6 hPa WNW 6.8 km/h 16.7 km/h 59 % 0 mm
18:31 2.8 °C -4.4 °C 1005 hPa WNW 5.8 km/h 18.5 km/h 59 % 0 mm
18:36 2.8 °C -4.4 °C 1005 hPa WSW 8.4 km/h 18.5 km/h 59 % 0 mm
18:41 2.8 °C -4.2 °C 1005 hPa SW 11.1 km/h 18.5 km/h 60 % 0 mm
18:46 2.8 °C -4.2 °C 1005 hPa West 10.8 km/h 18.5 km/h 60 % 0 mm
18:51 2.8 °C -4.2 °C 1005.3 hPa West 10.1 km/h 18.5 km/h 60 % 0 mm
18:56 2.7 °C -4.3 °C 1005.3 hPa WNW 9.7 km/h 18.5 km/h 60 % 0 mm
19:01 2.7 °C -4.1 °C 1005.3 hPa WSW 9.5 km/h 16.7 km/h 61 % 0 mm
19:06 2.6 °C -4.2 °C 1005.3 hPa WSW 7.4 km/h 18.5 km/h 61 % 0 mm
19:11 2.5 °C -4.1 °C 1005.3 hPa West 6.8 km/h 13 km/h 62 % 0 mm
19:16 2.4 °C -4.1 °C 1005.3 hPa West 11.1 km/h 16.7 km/h 62 % 0 mm
19:21 2.4 °C -4.1 °C 1005.3 hPa WSW 8.9 km/h 11.3 km/h 62 % 0 mm
19:26 2.4 °C -4.1 °C 1005.3 hPa NNW 7.9 km/h 17.7 km/h 62 % 0 mm
19:31 2.4 °C -3.9 °C 1005.3 hPa WSW 4.5 km/h 11.1 km/h 63 % 0 mm
19:36 2.4 °C -3.9 °C 1005.6 hPa WSW 8.9 km/h 14.8 km/h 63 % 0 mm
19:41 2.5 °C -4.1 °C 1005.6 hPa West 6.8 km/h 11.1 km/h 62 % 0 mm
19:46 2.6 °C -4 °C 1005.6 hPa West 4.7 km/h 5.6 km/h 62 % 0 mm
19:51 2.6 °C -3.8 °C 1006 hPa West 1.9 km/h 9.3 km/h 63 % 0 mm
19:56 2.6 °C -3.6 °C 1006 hPa WNW 5.6 km/h 11.1 km/h 64 % 0 mm
20:01 2.6 °C -3.6 °C 1006 hPa SW 6.1 km/h 9.7 km/h 64 % 0 mm
20:07 2.5 °C -3.4 °C 1006 hPa WSW 3.5 km/h 11.1 km/h 65 % 0 mm
20:12 2.6 °C -3.4 °C 1005.6 hPa SSW 9.7 km/h 13 km/h 65 % 0 mm
20:17 2.6 °C -3.6 °C 1005.6 hPa WSW 7.4 km/h 14.5 km/h 64 % 0 mm
20:22 2.6 °C -3.5 °C 1005.6 hPa NW 9.5 km/h 14.8 km/h 64 % 0 mm
20:27 2.7 °C -3.4 °C 1006 hPa West 2.3 km/h 11.1 km/h 64 % 0 mm
20:32 2.7 °C -3.4 °C 1006 hPa West 6.4 km/h 16.7 km/h 64 % 0 mm
20:37 2.7 °C -3.3 °C 1006 hPa WSW 6.1 km/h 14.8 km/h 65 % 0 mm
20:42 2.7 °C -3.4 °C 1006 hPa WSW 9.3 km/h 14.5 km/h 64 % 0 mm
20:47 2.7 °C -3.3 °C 1006 hPa SW 4.8 km/h 12.9 km/h 65 % 0 mm
20:52 2.7 °C -3.2 °C 1006 hPa WNW 8.4 km/h 14.5 km/h 65 % 0 mm
20:57 2.8 °C -3.2 °C 1006 hPa SW 10.5 km/h 14.5 km/h 65 % 0 mm
21:02 2.8 °C -3.2 °C 1006 hPa SW 10.8 km/h 22.5 km/h 65 % 0 mm
21:07 2.8 °C -3.2 °C 1006 hPa WSW 5.8 km/h 9.3 km/h 65 % 0 mm
21:12 2.8 °C -3.4 °C 1006 hPa West 14.8 km/h 22.2 km/h 64 % 0 mm
21:17 2.8 °C -3.8 °C 1006 hPa WSW 5.8 km/h 11.1 km/h 62 % 0 mm
21:22 2.8 °C -3.8 °C 1006 hPa SW 11.9 km/h 18.5 km/h 62 % 0 mm
21:27 2.7 °C -3.8 °C 1006 hPa West 7.4 km/h 18.5 km/h 62 % 0 mm
21:32 2.7 °C -3.8 °C 1006 hPa West 3.9 km/h 18.5 km/h 62 % 0 mm
21:38 2.7 °C -3.7 °C 1006 hPa West 4.5 km/h 20.4 km/h 63 % 0 mm
21:43 2.7 °C -3.4 °C 1006 hPa WSW 7.6 km/h 13 km/h 64 % 0 mm
21:48 2.6 °C -3.5 °C 1006 hPa West 6.1 km/h 16.7 km/h 64 % 0 mm
21:53 2.6 °C -3.4 °C 1006 hPa WSW 0.5 km/h 7.4 km/h 65 % 0 mm
21:58 2.6 °C -3.4 °C 1006 hPa West 4 km/h 9.3 km/h 65 % 0 mm
22:03 2.5 °C -3.2 °C 1006 hPa South 5.8 km/h 11.1 km/h 66 % 0 mm
22:08 2.4 °C -3.3 °C 1006 hPa SW 4.2 km/h 7.4 km/h 66 % 0 mm
22:13 2.4 °C -3.3 °C 1006 hPa WNW 7.6 km/h 13 km/h 66 % 0 mm
22:18 2.3 °C -3.6 °C 1006 hPa West 7.6 km/h 9.3 km/h 65 % 0 mm
22:23 2.3 °C -3.6 °C 1006 hPa West 5.6 km/h 11.1 km/h 65 % 0 mm
22:28 2.3 °C -3.6 °C 1005.6 hPa SW 5.3 km/h 11.1 km/h 65 % 0 mm
22:33 2.3 °C -3.4 °C 1006 hPa SW 4.8 km/h 11.1 km/h 66 % 0 mm
22:38 2.3 °C -3.4 °C 1005.6 hPa West 1.9 km/h 3.7 km/h 66 % 0 mm
22:43 2.3 °C -3.2 °C 1006 hPa SW 4 km/h 7.4 km/h 67 % 0 mm
22:48 2.2 °C -3.3 °C 1005.6 hPa WSW 4.7 km/h 7.4 km/h 67 % 0 mm
22:53 2.2 °C -3.3 °C 1005.6 hPa WSW 0.8 km/h 3.7 km/h 67 % 0 mm
22:58 2.2 °C -3.3 °C 1005.6 hPa WSW 3.2 km/h 5.6 km/h 67 % 0 mm
23:03 2.1 °C -3.6 °C 1005.6 hPa WSW 1.6 km/h 3.7 km/h 66 % 0 mm
23:08 2.1 °C -3.4 °C 1006 hPa WSW 1.8 km/h 3.2 km/h 67 % 0 mm
23:13 1.9 °C -3.6 °C 1006 hPa WSW 2.6 km/h 5.6 km/h 67 % 0 mm
23:19 1.8 °C -3.7 °C 1006 hPa Calm   4.8 km/h 67 % 0 mm
23:24 1.8 °C -3.7 °C 1006 hPa WSW 1.6 km/h 4.8 km/h 67 % 0 mm
23:29 1.7 °C -3.8 °C 1006 hPa SW 4.8 km/h 8 km/h 67 % 0 mm
23:34 1.6 °C -3.9 °C 1006 hPa SW 5.1 km/h 5.6 km/h 67 % 0 mm
23:39 1.6 °C -3.9 °C 1006 hPa SW 1.6 km/h 8 km/h 67 % 0 mm
23:44 1.6 °C -3.9 °C 1006 hPa SW 1.6 km/h 6.4 km/h 67 % 0 mm
23:49 1.5 °C -3.9 °C 1006 hPa SW 2.1 km/h 5.6 km/h 67 % 0 mm
23:54 1.5 °C -3.9 °C 1006 hPa SW 1.6 km/h 6.4 km/h 67 % 0 mm
23:59 1.4 °C -4 °C 1005.6 hPa SW 1 km/h 5.6 km/h 67 % 0 mm
Crab Meadow Weather
Compliments of Weather Underground - 3 mb

Script developed by  Jim McMurry - jmcmurry@mwt.net Adapted for the template by  Wim van der Kuil - Leuven-Template.eu

Astronomy: Venus rotates east to west.